Retour au catalogue

YAOGAN-30 P

ActifMilitaireVLEO
NORAD 44450·PAYLOAD·🇨🇳 China

Lancé Jul 26, 2019 depuis Xichang Satellite Launch Center

Loading…

Prochains Passages (prochaines 24 heures)

TLE

FraisSource: Space-Track

Époque: Sep 14, 2026, 15:13 UTC

1 44450U 19045B   26257.63416741  .00002150  00000-0  15839-3 0  9997
2 44450  34.9917 144.2665 0007751 142.7945 217.3301 15.03063509390126

Suivez YAOGAN-30 P en temps réel avec AllMySat

Download on the App Store